Showing default

INTELSAT 3-F7, 4376

Orbit data source: Space-Track

INTELSAT 3-F7, 4376 is a payload satellite owned by INTELSAT (US) in GEO that was launched on Thu, 23 Apr 1970 UTC via a THOR DELTA M launch vehicle from the Air Force Eastern Test Range (AFETR). Payload-class satellites include a variety of spacecraft equipped with specific instruments for various scientific and technological missions. These include communications satellites like Starlink; space stations such as the ISS; scientific satellites like the Hubble; Earth observation satellites from companies like Planet Labs, Umbra, and HawkEye 360; GPS; miniature CubeSats for education and research; and military/defense satellites.

Not visible in the next 10 days
Identifier
4376, 1970-032A
Orbit
GEO
Country
Flag of USUS / ITSO
Related business
Manufacturer
TRW
Mission
Non-operational spacecraft
Bus & Motor
INTELSAT 3, MRE-4
Mass
294 kg wet, 113 kg dry
Launch date (UTC)
1970-04-23 (56 years ago)
Launch vehicle
THOR DELTA M
Launch site
Air Force Eastern Test Range (AFETR)
Object type
Payload
Rocket body
Debris
Shape & HBR
Unknown
Radar Cross Section
Medium (>0.1 m² and <1 m²)

Expand to show TLE details & history
Last TLE update: 17 hours ago

TLE from 17 hours ago
0 INTELSAT 3-F7
1 04376U 70032A   26140.22771844 -.00000343  00000-0  00000-0 0  9991
2 04376   2.3570  88.2794 0003284 241.1418 118.4304  1.00329954 47088
Epoch: 2026-05-20T05:27Z
TLE epoch observation values (Epoch: 2026-05-20T05:27:54.873Z)
Latitude
Longitude
128.01843°
Altitude
35,776.357 km
Speed
3.075 km/s
True Right ascension
05h 51m 32s
True Declination
0° 00' 00"
Sunlit
Object was in daylight at epoch
Visualization orbit readout
Latitude
Unknown
Longitude
Unknown
Altitude
Unknown
Speed
Unknown
Apparent Right ascension
Unknown
Apparent Declination
Unknown
Sunlit
N/A
Visualization observer readout
Local Sidereal Time
07:16:26
Azimuth
Unknown
Elevation
Unknown
Doppler factor
Unknown
Orbital elements
Apogee altitude
35,785.206 km
Perigee altitude
35,757.522 km
Semi-major axis
42,149.501 km
Eccentricity
0.00033
Inclination
2.357°
RAAN
88.2794°
Arg. of periapsis
241.1418°
True anomaly
118.46349°
Mean anomaly
118.4304°
Eccentric anomaly
118.44694°
Mean motion
0.25082 °/min
Orbital period
1,435.32 mins
BSTAR
0
Loading maneuver chart data...
Computing Atmospheric mass density...
Loading historical data...
Loading historical data...
Loading historical data...
Loading historical data...
Loading historical data...
Loading historical data...
Loading historical data...
Other satellites on launch #32 in the year 1970 (1970-04-23 UTC)

Documentation

Showing up to 5 results
|